Stations météo

Publicité
Marseille/Marignane, France (7650): Température de l'air & dewpoint: 11.08.2019 17:00:00 - 17.08.2019 17:00:00 (CEST)Marseille/Marignane, France (7650): Température de l'air 5cm: 11.08.2019 17:00:00 - 17.08.2019 17:00:00 (CEST)Marseille/Marignane, France (7650): Température de l'air -20cm & Température de l'air -100cm: 11.08.2019 17:00:00 - 17.08.2019 17:00:00 (CEST)Marseille/Marignane, France (7650): Vitesse du vent & gusts: 11.08.2019 17:00:00 - 17.08.2019 17:00:00 (CEST)Marseille/Marignane, France (7650): Direction du vent: 11.08.2019 17:00:00 - 17.08.2019 17:00:00 (CEST)Marseille/Marignane, France (7650): reduced air pressure: 11.08.2019 17:00:00 - 17.08.2019 17:00:00 (CEST)Marseille/Marignane, France (7650): visibility: 11.08.2019 17:00:00 - 17.08.2019 17:00:00 (CEST)Marseille/Marignane, France (7650): Ensoleillement: 11.08.2019 17:00:00 - 17.08.2019 17:00:00 (CEST)Marseille/Marignane, France (7650): Quantités de précipitations: 11.08.2019 17:00:00 - 17.08.2019 17:00:00 (CEST)
Date & Time tt [°C] td [°C] tt 5cm [°C] tt -20cm [°C] tt -100cm [°C] ff [km/h] ff [knt] fx [km/h] fx [knt] dd ppp [hPa] vv [km] sd [min] rr [mm]
17.08.2019 17:00:00 27,7 20,3 33,8 30,4 23,8 26 14 40 22 S 1015,3 26 60 0,0
17.08.2019 16:00:00 28,2 18,6 33,7 29,6 23,8 24 13 39 21 S 1015,6 26 60 0,0
17.08.2019 15:00:00 29,3 18,4 36,0 28,7 23,8 22 12 34 18 S 1015,9 29 60 0,0
17.08.2019 14:00:00 29,2 18,6 34,6 27,9 23,8 20 11 34 18 S 1016,5 19 60 0,0
17.08.2019 13:00:00 27,4 19,2 32,6 27,1 23,8 21 11 32 17 SSW 1016,9 20 53 0,0
17.08.2019 12:00:00 28,1 16,7 31,9 26,4 23,8 23 13 34 19 SSW 1016,7 36 60 0,0
17.08.2019 11:00:00 25,6 16,2 30,3 26,0 23,8 11 6 17 9 WNW 1017,0 37 60 0,0
17.08.2019 10:00:00 24,6 14,7 26,7 25,9 23,8 8 4 12 6 WNW 1016,6 40 44 0,0
17.08.2019 09:00:00 24,1 13,9 23,2 26,1 23,8 8 4 20 11 NNE 1016,3 43 60 0,0
17.08.2019 08:00:00 20,6 13,8 14,7 26,4 23,8 9 5 13 7 E 1016,2 39 23 0,0
17.08.2019 07:00:00 17,1 13,0 14,6 26,7 23,8 9 5 15 8 ESE 1016,5 39 0 0,0
17.08.2019 06:00:00 18,2 13,7 14,7 27,1 23,8 5 3 10 5 SSE 1016,4 41 0 0,0
17.08.2019 05:00:00 18,4 13,9 15,1 27,5 23,8 9 5 11 6 ESE 1016,2 40 0 0,0
17.08.2019 04:00:00 20,4 14,5 17,6 27,9 23,8 4 2 10 6 N 1016,3 36 0 0,0
17.08.2019 03:00:00 20,7 15,0 17,1 28,3 23,8 7 4 13 7 ENE 1015,9 48 0 0,0
17.08.2019 02:00:00 19,6 14,8 17,3 28,8 23,8 8 4 11 6 ESE 1016,6 47 0 0,0
17.08.2019 01:00:00 20,5 15,9 17,5 29,2 23,8 10 5 11 6 ESE 1016,9 44 0 0,0
17.08.2019 00:00:00 21,9 17,1 19,7 29,7 23,8 10 5 13 7 WSW 1017,2 47 0 0,0
16.08.2019 23:00:00 21,9 16,0 19,7 30,2 23,8 9 5 20 11 WSW 1016,8 57 0 0,0
16.08.2019 22:00:00 22,6 15,9 21,3 30,6 23,8 14 7 25 13 SW 1016,4 60 0 0,0
16.08.2019 21:00:00 23,6 14,6 22,7 31,0 23,8 21 11 29 16 WSW 1015,6 60 19 0,0
16.08.2019 20:00:00 25,3 15,3 25,5 31,2 23,8 20 11 27 14 WSW 1014,9 52 24 0,0
16.08.2019 19:00:00 28,7 13,8 30,8 31,1 23,8 13 7 25 13 WSW 1014,6 50 60 0,0
16.08.2019 18:00:00 29,5 12,9 34,2 30,8 23,8 12 7 22 12 W 1014,9 43 60 0,0
16.08.2019 17:00:00 29,5 13,3 30,7 30,3 23,8 15 8 27 15 WSW 1015,3 38 53 0,0
16.08.2019 16:00:00 30,3 10,3 34,1 29,5 23,8 11 6 19 10 W 1015,5 35 58 0,0
16.08.2019 15:00:00 29,2 8,8 34,9 28,7 23,8 10 5 17 9 WNW 1015,8 38 58 0,0
16.08.2019 14:00:00 28,1 9,4 34,5 27,8 23,8 10 5 30 16 W 1016,3 38 60 0,0
16.08.2019 13:00:00 26,9 9,7 32,7 27,0 23,8 13 7 32 18 W 1016,6 44 60 0,0
16.08.2019 12:00:00 25,9 11,6 30,8 26,4 23,8 16 9 22 12 W 1017,0 46 60 0,0
16.08.2019 11:00:00 24,7 10,6 29,3 26,0 23,8 11 6 22 12 W 1017,1 38 60 0,0
16.08.2019 10:00:00 23,5 10,2 25,7 25,9 23,8 6 3 26 14 N 1017,0 33 60 0,0
16.08.2019 09:00:00 22,2 11,0 22,8 26,1 23,8 18 10 30 16 NW 1016,8 24 60 0,0
16.08.2019 08:00:00 21,0 11,3 19,4 26,4 23,8 20 11 31 17 NW 1016,1 43 53 0,0
16.08.2019 07:00:00 20,4 10,8 17,8 26,7 23,8 16 9 32 17 NW 1015,9 60 0 0,0
16.08.2019 06:00:00 21,3 11,0 20,4 27,0 23,8 28 15 42 23 NNW 1015,7 60 0 0,0
16.08.2019 05:00:00 21,2 9,7 20,4 27,4 23,8 33 18 48 26 NW 1015,9 60 0 0,0
16.08.2019 04:00:00 22,1 10,6 21,1 27,7 23,9 34 18 43 23 NW 1015,9 60 0 0,0
16.08.2019 03:00:00 22,6 10,7 21,8 28,0 23,8 29 15 42 23 NW 1016,0 60 0 0,0
16.08.2019 02:00:00 23,8 11,1 23,0 28,4 23,8 33 18 49 27 NW 1016,2 60 0 0,0
16.08.2019 01:00:00 24,5 11,4 23,0 28,7 23,8 29 16 41 22 NW 1016,4 60 0 0,0
16.08.2019 00:00:00 24,2 11,8 23,3 29,2 23,9 24 13 37 20 NW 1016,4 60 0 0,0
15.08.2019 23:00:00 25,4 13,6 24,7 29,6 23,9 28 15 37 20 NW 1016,1 60 0 0,0
15.08.2019 22:00:00 26,0 12,8 25,2 29,9 23,9 23 13 32 18 WNW 1015,9 60 0 0,0
15.08.2019 21:00:00 26,9 15,3 26,2 30,2 23,8 28 15 45 25 WNW 1015,1 60 20 0,0
15.08.2019 20:00:00 27,9 16,2 28,9 30,4 23,9 29 16 44 24 W 1014,6 31 55 0,0
15.08.2019 19:00:00 29,5 14,9 32,0 30,3 23,9 31 17 43 23 W 1014,2 24 60 0,0
15.08.2019 18:00:00 29,7 14,7 33,5 30,0 23,9 29 16 44 24 W 1014,3 20 60 0,0
15.08.2019 17:00:00 30,6 13,8 35,2 29,5 23,9 34 19 45 24 W 1014,5 22 60 0,0
15.08.2019 16:00:00 30,8 15,2 35,6 28,8 23,9 29 16 42 23 W 1014,9 20 60 0,0
15.08.2019 15:00:00 30,1 15,4 34,6 28,0 23,9 25 13 45 24 W 1015,5 29 60 0,0
15.08.2019 14:00:00 29,4 16,2 34,9 27,2 23,9 28 15 38 20 WSW 1015,9 34 60 0,0
15.08.2019 13:00:00 28,5 14,0 33,4 26,4 23,9 15 8 23 12 W 1016,7 20 60 0,0
15.08.2019 12:00:00 27,5 12,3 31,7 25,8 23,9 19 11 32 17 W 1017,2 39 60 0,0
15.08.2019 11:00:00 26,5 11,4 28,6 25,5 23,9 23 13 31 17 WNW 1017,2 43 50 0,0
15.08.2019 10:00:00 24,5 12,4 27,9 25,2 23,9 21 12 28 15 W 1017,2 59 60 0,0
15.08.2019 09:00:00 23,1 11,5 24,6 25,3 23,9 14 7 18 10 WNW 1017,0 60 60 0,0
15.08.2019 08:00:00 22,3 10,8 20,1 25,6 23,9 9 5 20 11 WNW 1016,8 54 31 0,0
15.08.2019 07:00:00 21,5 9,7 20,1 25,8 23,9 11 6 32 17 NW 1016,2 60 0 0,0
15.08.2019 06:00:00 21,2 9,7 16,4 26,1 24,0 9 5 16 9 NW 1015,9 60 0 0,0
15.08.2019 05:00:00 20,8 10,0 17,8 26,4 23,9 8 4 18 10 NNW 1016,2 60 0 0,0
15.08.2019 04:00:00 19,9 11,1 17,4 26,8 23,9 10 6 17 9 NW 1016,2 60 0 0,0
15.08.2019 03:00:00 21,1 10,9 17,7 27,2 23,9 11 6 18 10 NW 1016,3 60 0 0,0
15.08.2019 02:00:00 21,5 8,4 16,3 27,6 24,0 11 6 17 9 NW 1016,3 60 0 0,0
15.08.2019 01:00:00 20,7 9,9 15,4 28,0 23,9 8 5 14 7 NW 1016,2 60 0 0,0
15.08.2019 00:00:00 22,5 10,9 19,3 28,5 24,0 9 5 11 6 WNW 1015,8 60 0 0,0
14.08.2019 23:00:00 23,7 13,6 20,7 28,9 24,0 8 5 22 12 WNW 1015,6 60 0 0,0
14.08.2019 22:00:00 24,1 16,1 22,6 29,2 23,9 17 9 20 11 W 1015,1 60 0 0,0
14.08.2019 21:00:00 25,2 14,9 23,4 29,5 24,0 14 8 21 11 W 1014,6 60 22 0,0
14.08.2019 20:00:00 27,2 13,2 28,0 29,6 24,0 14 8 35 19 WSW 1014,4 53 60 0,0
14.08.2019 19:00:00 28,3 12,6 30,9 29,4 24,0 27 14 39 21 WSW 1013,8 36 60 0,0
14.08.2019 18:00:00 30,3 8,1 31,1 29,1 24,0 28 15 39 21 WNW 1013,8 23 51 0,0
14.08.2019 17:00:00 30,4 6,3 33,9 28,7 24,0 28 15 42 23 WNW 1014,1 22 60 0,0
14.08.2019 16:00:00 29,7 7,0 34,6 28,0 24,0 32 17 41 22 WNW 1014,1 20 60 0,0
14.08.2019 15:00:00 29,8 7,7 33,8 27,3 24,0 35 19 46 25 W 1014,8 27 60 0,0
14.08.2019 14:00:00 28,5 8,7 33,0 26,5 24,0 36 19 45 24 WNW 1015,0 31 60 0,0
14.08.2019 13:00:00 27,4 9,7 32,6 25,8 24,0 23 12 37 20 W 1015,4 39 60 0,0
14.08.2019 12:00:00 26,1 8,6 29,1 25,3 24,0 21 12 36 19 NW 1015,8 37 60 0,0
14.08.2019 11:00:00 24,5 8,8 26,8 25,0 24,0 26 14 42 23 NW 1015,9 20 60 0,0
14.08.2019 10:00:00 22,4 8,5 23,9 24,9 24,0 25 14 43 23 NW 1015,7 43 60 0,0
14.08.2019 09:00:00 20,8 8,8 19,5 25,1 24,0 16 8 39 21 NW 1015,8 50 38 0,0
14.08.2019 08:00:00 19,2 7,6 18,7 25,3 24,0 29 16 54 29 NW 1015,6 53 0 0,0
14.08.2019 07:00:00 19,1 8,7 17,8 25,5 24,0 40 21 49 27 WNW 1015,0 60 0 0,0
14.08.2019 06:00:00 19,1 8,7 18,2 25,8 24,0 19 10 43 23 WNW 1014,8 60 0 0,0
14.08.2019 05:00:00 19,7 9,0 18,4 26,0 24,0 22 12 50 27 NW 1014,9 60 0 0,0
14.08.2019 04:00:00 20,3 9,2 19,6 26,3 24,0 36 20 55 30 NW 1014,8 60 0 0,0
14.08.2019 03:00:00 20,6 9,2 19,9 26,6 24,0 33 18 55 30 NW 1015,4 60 0 0,0
14.08.2019 02:00:00 21,2 9,1 20,5 26,9 24,0 36 20 59 32 NW 1015,4 60 0 0,0
14.08.2019 01:00:00 21,6 9,2 20,9 27,2 24,0 36 20 52 28 NW 1015,5 60 0 0,0
14.08.2019 00:00:00 21,9 9,4 21,3 27,5 24,0 35 19 56 30 NW 1015,4 60 0 0,0
13.08.2019 23:00:00 22,5 9,6 21,8 27,9 24,0 40 22 60 32 NW 1015,4 60 0 0,0
13.08.2019 22:00:00 23,2 10,3 22,5 28,2 24,0 42 23 65 35 NW 1014,8 54 0 0,0
13.08.2019 21:00:00 24,0 9,2 23,4 28,4 24,0 46 25 68 37 NW 1014,3 60 23 0,0
13.08.2019 20:00:00 25,1 7,7 25,8 28,6 24,0 41 22 67 36 NNW 1014,0 24 60 0,0
13.08.2019 19:00:00 26,5 9,4 28,4 28,5 24,0 49 26 75 41 NW 1013,6 14 60 0,0
13.08.2019 18:00:00 27,0 7,9 30,2 28,3 24,0 48 26 69 37 NW 1013,6 15 60 0,0
13.08.2019 17:00:00 27,6 8,0 31,1 27,9 24,0 48 26 68 37 NW 1013,7 14 60 0,0
13.08.2019 16:00:00 27,3 9,2 29,4 27,5 24,0 47 26 67 36 NW 1013,9 17 54 0,0
13.08.2019 15:00:00 25,6 10,6 28,5 27,1 24,0 42 23 61 33 NW 1014,3 20 39 0,0
13.08.2019 14:00:00 25,7 11,1 28,0 26,6 24,0 35 19 64 34 NW 1014,7 23 43 0,0
13.08.2019 13:00:00 24,8 10,3 27,6 26,3 24,0 37 20 68 37 NW 1015,5 24 58 0,0
13.08.2019 12:00:00 23,7 11,1 26,1 26,1 24,0 41 22 61 33 NNW 1015,6 26 60 0,0
13.08.2019 11:00:00 23,2 12,2 23,8 26,0 24,0 46 25 72 39 NW 1015,7 28 15 0,0
13.08.2019 10:00:00 22,0 11,1 23,2 26,0 24,0 45 25 63 34 NNW 1015,6 24 51 0,0
13.08.2019 09:00:00 21,0 10,8 21,2 26,2 24,0 42 23 64 34 NNW 1015,8 26 50 0,0
13.08.2019 08:00:00 20,1 10,8 19,7 26,4 24,0 42 23 62 33 NNW 1016,1 25 57 0,0
13.08.2019 07:00:00 20,0 11,0 19,5 26,7 24,0 41 22 60 33 NW 1016,4 39 0 0,0
13.08.2019 06:00:00 20,4 11,3 19,6 26,9 24,0 37 20 55 30 NW 1016,4 60 0 0,0
13.08.2019 05:00:00 21,1 10,9 20,5 27,2 24,0 40 21 68 37 NW 1016,3 60 0 0,0
13.08.2019 04:00:00 21,7 11,4 21,1 27,5 24,0 41 22 61 33 NW 1016,1 60 0 0,0
13.08.2019 03:00:00 22,4 12,1 21,8 27,8 24,0 37 20 58 31 NW 1016,1 60 0 0,0
13.08.2019 02:00:00 22,9 12,2 22,3 28,0 24,0 37 20 56 31 NW 1016,2 60 0 0,0
13.08.2019 01:00:00 23,3 12,0 22,6 28,4 24,0 31 17 54 29 NW 1016,4 60 0 0,0
13.08.2019 00:00:00 23,5 11,5 22,7 28,6 24,0 29 15 48 26 NW 1016,6 60 0 0,0
12.08.2019 23:00:00 25,0 11,9 24,2 28,9 24,0 30 16 44 24 NW 1016,1 60 0 0,0
12.08.2019 22:00:00 26,0 11,7 25,2 29,1 24,0 26 14 40 22 NNW 1015,7 60 0 0,0
12.08.2019 21:00:00 26,9 12,5 26,0 29,3 24,0 24 13 48 26 NW 1014,7 60 24 0,0
12.08.2019 20:00:00 27,9 11,0 28,8 29,4 24,0 33 18 45 25 NNW 1013,9 31 60 0,0
12.08.2019 19:00:00 28,8 11,8 31,7 29,2 24,0 30 16 50 27 NNW 1013,5 34 60 0,0
12.08.2019 18:00:00 29,2 12,2 30,7 29,0 24,0 37 20 49 26 NNW 1013,3 33 57 0,0
12.08.2019 17:00:00 28,7 12,2 29,4 28,8 24,0 31 17 47 25 NW 1013,6 35 36 0,0
12.08.2019 16:00:00 28,9 11,9 30,8 28,7 24,0 34 18 48 26 NW 1013,9 43 40 0,0
12.08.2019 15:00:00 27,7 16,0 25,9 28,6 24,0 27 15 44 24 NW 1014,1 36 10 0,0
12.08.2019 14:00:00 25,1 16,3 20,9 28,5 23,9 17 9 27 14 WNW 1014,2 46 6 0,0
12.08.2019 13:00:00 23,2 16,7 20,2 28,3 24,0 21 11 29 15 NW 1014,3 18 3 0,4
12.08.2019 12:00:00 25,4 15,7 27,0 28,1 23,9 19 10 34 19 NNW 1014,3 37 - 0,0
12.08.2019 11:00:00 23,2 15,3 24,0 28,3 24,1 14 7 22 12 WNW 1014,0 40 - 0,0
12.08.2019 10:00:00 21,4 15,2 21,4 28,5 24,1 14 8 29 16 NNE 1013,3 50 0 0,0
12.08.2019 09:00:00 20,9 14,8 19,2 28,8 24,1 16 9 26 14 NW 1013,5 40 0 0,0
12.08.2019 08:00:00 20,6 14,5 20,3 29,1 24,1 11 6 42 23 N 1014,3 49 4 0,0
12.08.2019 07:00:00 20,8 14,9 20,7 29,4 24,1 21 11 34 18 NW 1014,5 60 0 0,0
12.08.2019 06:00:00 21,5 15,6 20,9 29,7 24,1 16 9 20 11 NW 1013,0 58 0 0,0
12.08.2019 05:00:00 21,7 16,4 21,2 30,0 24,1 12 6 21 11 W 1012,8 47 0 0,0
12.08.2019 04:00:00 22,7 16,9 22,3 30,4 24,1 13 7 21 11 NNW 1012,9 40 0 0,0
12.08.2019 03:00:00 23,4 17,8 23,1 30,7 24,1 17 9 26 14 N 1012,9 34 0 0,0
12.08.2019 02:00:00 23,9 17,6 23,6 31,0 24,1 21 11 29 16 N 1013,8 37 0 0,0
12.08.2019 01:00:00 25,4 21,7 22,9 31,4 24,1 13 7 19 10 NNE 1013,9 18 0 0,0
12.08.2019 00:00:00 25,6 22,5 23,8 31,7 24,1 0 0 10 5 N 1014,0 17 0 0,0
11.08.2019 23:00:00 25,8 22,1 24,6 32,1 24,1 6 3 15 8 S 1013,9 18 0 0,0
11.08.2019 22:00:00 26,5 22,1 25,3 32,5 24,1 10 5 19 10 S 1013,8 20 0 0,0
11.08.2019 21:00:00 26,6 21,8 26,4 32,8 24,1 13 7 27 14 S 1013,6 21 0 0,0
11.08.2019 20:00:00 27,2 21,7 27,4 33,0 24,1 16 9 36 19 S 1013,3 24 17 0,0
11.08.2019 19:00:00 28,4 21,4 31,0 33,0 24,1 25 14 42 23 SSE 1012,6 25 51 0,0
11.08.2019 18:00:00 29,2 22,2 32,0 32,9 24,0 29 16 53 29 SSE 1013,0 20 47 0,0
11.08.2019 17:00:00 29,2 21,7 32,8 32,6 24,0 29 16 48 26 S 1013,0 22 36 0,0

tt = Température de l'air
td = dewpoint
tt 5cm = Température de l'air 5cm
tt -20cm = Température de l'air -20cm
tt -100cm = Température de l'air -100cm
ff = Vitesse du vent
fx = gusts
dd = Direction du vent
ppp = reduced air pressure
vv = visibility
sd = Ensoleillement
rr = Quantités de précipitations

stations d'obs. à proximité